Theta_e
347 348 346 346 345 345 345 346 347 348 348 350 350 351 353 356 358 358 358 359 359 360 361 361 363 363 364 363 364 364 363 360 361 359 361 362 360 360 359 358 356 355
347 350 352 348 348 351 347 347 347 348 349 350 351 352 353 356 357 358 357 357 360 362 362 361 363 363 363 363 363 360 360 363 361 367 364 360 360 361 360 360 357 355
349 350 351 348 347 350 348 349 348 349 349 350 352 352 354 357 356 357 357 357 357 358 361 361 362 364 362 362 363 362 360 361 362 361 363 360 360 362 363 360 360 359
351 351 351 350 349 350 351 351 350 350 351 351 351 353 355 357 358 356 356 363 358 358 360 361 362 362 363 362 362 361 362 362 361 362 364 361 360 363 362 361 362 360
354 353 352 352 351 353 352 351 351 350 351 352 353 354 357 357 357 356 356 356 358 357 358 361 361 361 362 361 361 360 360 361 360 361 362 360 360 363 363 362 360 358
356 356 355 353 353 352 351 351 352 352 352 351 352 356 355 354 355 357 357 356 356 356 357 359 360 360 361 361 361 360 359 359 359 361 360 360 359 359 359 361 360 359
355 355 355 354 353 353 352 352 352 355 353 353 355 355 355 354 354 355 357 357 356 358 356 359 359 360 360 361 360 360 358 358 359 360 361 360 361 361 360 360 361 360
356 356 357 355 353 353 353 352 352 353 354 356 352 347 350 349 349 349 351 353 355 356 357 358 360 360 359 360 360 359 358 357 358 359 360 360 359 359 360 359 361 360
356 356 356 355 354 353 353 353 352 353 356 350 347 348 349 351 351 351 349 350 353 356 356 357 359 359 360 360 360 359 358 358 358 359 359 358 357 358 359 359 359 359
356 356 355 355 354 354 353 354 354 352 352 350 350 350 350 351 351 351 350 351 350 353 356 358 358 359 359 360 360 360 359 359 359 359 359 358 358 358 359 358 358 358
355 356 355 355 354 354 354 354 354 351 352 352 351 351 350 349 349 350 350 350 348 350 353 357 358 359 359 359 359 360 360 359 359 359 358 358 358 359 362 361 359 359
355 356 356 355 355 354 354 355 354 352 352 353 352 350 349 349 348 349 350 349 349 351 353 357 359 359 360 360 359 360 360 360 360 360 358 358 358 356 355 356 357 357
355 355 356 356 356 356 355 355 354 354 353 352 352 350 350 349 348 348 350 349 349 351 353 356 358 358 359 360 359 360 360 360 359 359 359 357 356 356 355 354 354 355
355 356 356 356 357 357 355 354 355 354 353 353 352 351 350 350 349 348 348 350 351 351 353 357 359 359 359 360 360 359 359 359 359 358 355 357 357 357 356 355 355 355
354 355 356 356 358 356 354 353 353 353 353 352 353 352 351 351 351 350 349 350 351 352 352 356 359 359 360 358 358 359 359 358 358 356 355 354 354 354 354 354 355 355
353 354 354 354 354 354 354 353 352 352 351 351 352 351 352 353 352 351 350 350 350 351 353 355 358 357 358 361 361 360 361 360 358 354 354 353 353 353 353 353 354 354
351 351 352 352 353 353 353 352 351 351 351 351 352 352 352 353 352 350 350 350 350 350 352 354 355 355 351 334 338 345 358 359 356 352 352 353 352 353 354 354 354 354
348 349 349 350 350 351 351 350 350 350 350 350 350 350 351 352 351 350 350 350 350 351 352 352 350 339 328 331 336 338 347 356 354 350 350 351 353 352 353 353 353 354
346 347 348 349 349 349 350 349 348 349 349 349 349 350 350 350 351 350 350 350 351 351 349 346 339 328 326 328 330 330 333 347 352 349 347 348 349 351 353 354 356 356
342 344 346 347 348 348 347 347 347 347 348 350 351 351 350 349 350 350 349 350 350 350 343 336 334 325 322 324 325 326 329 338 347 350 348 348 349 351 354 356 356 356
341 340 341 343 346 346 346 346 346 347 348 350 350 349 348 348 347 346 345 346 342 338 335 330 327 320 320 322 321 323 326 342 349 350 352 352 352 353 353 355 354 352
341 340 340 342 342 343 342 340 341 341 343 347 348 346 343 342 340 339 336 335 335 335 333 330 326 318 317 318 320 322 331 347 351 352 353 353 351 351 350 348 346 344
340 339 340 340 341 341 341 341 341 340 340 344 344 344 342 339 337 335 334 334 334 332 330 328 326 320 315 315 318 320 340 351 353 353 351 348 345 345 344 343 341 339
340 340 341 341 340 341 341 341 342 341 340 345 342 341 337 335 334 333 334 334 331 330 328 327 326 322 313 313 316 322 344 351 351 349 346 343 341 339 340 341 343 343
341 341 341 341 341 342 342 341 341 341 344 345 343 340 337 336 334 332 332 331 332 332 333 326 326 326 314 314 316 324 341 349 349 346 340 337 336 335 335 334 334 338
340 341 340 341 341 342 343 343 344 343 342 342 342 339 337 336 334 329 327 328 329 327 327 326 325 325 321 313 314 319 330 344 344 343 340 337 337 334 331 331 331 331
Wind_Speed
6 6 6 6 6 7 7 7 6 6 6 5 5 5 5 5 4 4 4 3 3 3 2 2 1 1 1 2 2 2 2 2 1 1 2 1 2 3 3 4 2 1
6 6 5 5 5 5 5 6 7 7 6 6 6 5 5 4 4 4 5 4 3 3 2 2 2 2 3 3 3 3 2 1 2 0 2 3 2 2 2 3 3 1
6 6 7 7 7 7 7 6 6 6 6 7 6 5 5 4 4 4 4 4 3 3 3 3 3 3 3 3 3 3 2 1 0 0 1 2 1 2 1 2 2 3
6 6 7 7 6 7 6 6 6 6 5 5 6 6 5 4 5 5 4 4 4 4 3 3 3 3 3 3 3 2 2 1 1 0 1 1 1 1 1 1 2 2
6 6 5 5 5 5 5 6 6 6 6 6 5 5 5 5 5 5 5 5 5 5 4 4 4 3 3 3 3 2 2 1 1 1 1 2 1 0 1 1 2 3
5 5 5 5 5 5 5 5 5 6 5 5 6 5 5 5 5 4 4 4 4 4 4 4 4 4 3 3 2 2 2 1 1 1 1 3 2 1 1 1 2 2
6 6 6 5 5 5 6 6 5 5 6 5 4 4 3 3 2 1 1 1 2 3 4 4 5 4 3 3 2 3 2 2 2 1 2 2 2 3 1 2 2 2
7 6 6 5 6 5 6 6 6 6 6 5 4 3 4 5 4 3 2 2 1 1 3 4 4 4 3 3 3 3 3 1 2 3 3 3 2 3 4 2 2 3
6 6 6 6 7 6 6 6 6 6 5 5 5 5 5 6 5 5 3 2 3 3 2 3 4 4 3 3 3 4 4 3 3 4 4 4 4 5 4 2 2 2
6 5 6 6 6 5 7 6 5 5 6 7 8 7 7 5 3 3 3 3 3 3 3 4 4 4 4 4 5 5 5 5 5 4 4 4 4 4 2 1 2 2
6 5 6 6 6 5 6 6 5 6 6 7 7 6 5 4 3 3 3 3 4 6 4 4 4 4 5 5 4 4 5 5 5 5 5 4 2 1 3 3 3 3
6 6 6 6 6 5 6 5 5 6 7 6 7 7 6 5 6 5 5 6 5 5 5 4 3 4 5 5 5 5 5 5 5 5 4 3 3 4 4 3 3 3
7 7 6 7 6 6 5 5 5 6 5 6 6 6 5 5 6 6 5 6 6 5 5 5 4 4 5 5 5 5 5 5 5 3 2 3 4 5 4 4 5 4
7 7 7 7 6 6 6 6 6 6 6 5 4 5 5 5 6 7 7 7 6 6 5 4 4 5 5 6 5 5 5 5 5 2 3 4 5 4 4 5 5 4
6 6 5 6 6 6 6 6 6 7 6 5 5 5 5 6 6 6 6 6 6 5 5 4 4 4 4 4 4 5 5 5 4 6 6 5 5 5 4 5 5 4
6 6 6 5 6 7 7 7 6 6 5 5 6 6 5 4 4 5 5 5 5 5 5 4 4 3 4 7 5 4 4 4 4 5 6 5 5 6 5 5 5 5
6 6 6 7 7 7 6 6 7 6 6 7 6 6 6 5 5 5 6 5 5 5 5 5 4 3 4 2 1 4 4 3 6 2 4 3 4 5 5 5 5 4
6 6 7 7 7 7 7 7 7 6 7 7 6 7 6 5 6 6 6 5 4 5 5 4 4 3 3 2 1 3 4 3 6 5 4 4 4 5 5 5 5 3
3 5 6 7 8 7 7 6 6 6 7 7 8 8 6 7 7 6 6 5 5 5 5 3 2 4 4 3 2 2 3 3 4 10 6 7 5 6 6 6 4 3
2 3 4 5 4 4 5 6 6 6 4 3 1 1 4 5 5 6 5 5 5 4 4 3 2 3 3 2 2 3 3 2 1 7 10 8 9 8 5 6 5 4
6 3 4 2 0 2 3 3 2 1 3 3 3 3 3 1 1 1 1 2 3 4 4 3 2 6 4 4 3 3 4 2 1 1 2 6 7 5 5 4 3 3
6 7 2 2 1 4 5 6 6 5 4 5 1 4 5 6 5 4 4 4 4 4 5 4 3 8 6 5 4 3 2 1 1 0 2 3 4 3 3 3 3 2
5 7 8 7 6 5 7 8 8 7 7 5 1 2 2 5 5 5 5 5 4 4 5 3 3 7 7 6 5 4 2 2 2 3 4 6 5 5 4 4 4 4
5 7 8 7 5 7 8 6 6 5 5 6 7 5 3 4 5 5 4 5 6 5 4 4 3 6 9 7 6 5 3 3 4 5 6 6 6 6 6 6 8 14
6 6 5 5 5 8 7 7 7 6 5 4 4 5 5 5 6 6 5 5 6 7 10 7 4 5 9 8 8 5 5 4 5 6 6 5 5 6 5 5 6 9
9 9 8 8 9 8 2 2 4 4 4 4 4 4 6 6 4 6 7 5 5 6 6 5 6 5 7 9 9 9 8 6 4 5 5 6 5 5 4 4 5 5
Wind_Direction
176 177 180 181 182 177 172 171 177 176 187 179 186 205 204 215 194 190 199 202 204 198 211 224 222 178 137 138 127 115 116 130 129 168 103 81 58 35 25 15 18 304
178 178 179 178 178 175 173 176 175 180 186 187 198 197 209 203 210 185 198 207 207 209 189 200 195 178 173 159 150 130 125 136 99 57 68 45 37 32 30 355 0 47
175 176 176 172 174 177 174 179 175 185 183 192 188 191 193 198 198 196 195 200 214 221 213 201 197 193 179 171 160 143 138 139 205 62 95 72 34 16 10 341 350 8
184 184 181 178 173 174 169 164 178 179 177 171 193 191 185 192 187 188 193 202 203 221 219 213 214 204 186 170 157 147 141 160 174 159 53 85 77 356 337 322 342 16
184 187 188 183 177 170 162 171 175 175 181 193 185 181 184 191 189 189 189 194 197 208 206 214 208 207 190 175 163 163 163 204 194 162 51 332 289 257 291 1 359 349
190 190 189 186 180 168 170 183 183 178 185 182 194 181 190 192 195 199 197 195 192 200 204 209 205 206 191 188 163 177 202 217 221 171 244 280 294 235 260 266 314 303
188 185 189 183 175 178 183 190 186 184 189 191 156 159 143 127 122 110 130 216 230 219 215 205 208 211 193 176 184 212 221 238 267 203 254 273 287 300 269 254 259 270
192 187 181 176 181 182 191 187 189 190 175 155 142 133 139 148 156 153 148 148 164 225 240 231 212 211 201 164 191 205 240 212 230 226 236 256 270 287 289 258 234 262
189 186 182 181 184 187 196 193 192 175 150 139 155 175 188 186 183 177 176 191 210 206 205 229 227 213 191 184 195 202 219 235 234 221 222 237 244 254 263 259 262 269
190 188 188 187 191 191 198 200 183 150 154 166 182 186 194 202 173 165 166 188 236 255 225 203 212 216 198 196 205 204 206 218 222 223 225 233 242 259 300 330 261 252
191 187 191 195 200 196 206 202 175 166 182 188 192 198 190 167 170 155 184 182 217 231 239 225 210 211 206 202 209 208 212 218 219 214 215 223 249 257 243 220 226 242
193 191 195 195 199 207 211 205 177 184 196 205 204 206 191 176 185 193 192 210 215 221 224 234 219 206 218 218 213 210 215 223 224 219 214 184 196 205 213 209 224 235
195 199 197 197 196 203 206 192 188 199 196 204 209 212 191 179 190 196 206 210 219 217 219 216 215 207 209 215 218 214 215 222 230 220 165 198 217 221 219 223 226 226
204 200 202 204 204 205 205 191 186 193 203 210 203 209 204 192 187 197 205 205 211 210 214 209 209 212 212 213 211 211 213 217 216 156 208 217 240 242 234 239 238 235
204 200 200 202 202 203 208 199 190 196 194 195 203 212 212 205 197 198 196 205 208 210 209 207 201 213 212 206 206 206 203 215 168 161 199 217 256 260 245 244 249 246
206 199 196 199 204 208 211 203 196 193 191 196 206 212 210 202 200 200 206 210 208 205 205 202 203 198 211 214 208 212 200 206 144 165 190 201 229 250 251 240 242 240
205 207 195 198 204 210 214 206 200 193 194 200 207 212 212 202 196 200 208 208 206 201 198 203 195 183 136 116 224 250 227 203 130 165 244 226 219 232 255 251 244 246
206 202 199 204 198 206 205 202 196 196 201 203 204 205 207 198 198 205 207 199 195 197 199 194 165 82 72 48 287 260 265 239 120 155 252 235 224 239 241 243 244 225
234 211 212 210 207 204 199 192 193 198 204 204 210 210 190 194 206 196 202 195 185 185 185 151 104 49 48 28 348 327 312 299 128 140 228 251 242 242 244 235 225 189
54 309 240 220 203 179 168 174 180 195 193 192 214 282 228 220 202 196 192 190 183 155 109 87 88 21 27 23 0 345 339 333 227 147 169 217 249 245 231 224 207 181
132 157 299 317 188 132 119 98 69 61 157 154 137 136 132 96 5 259 108 98 79 96 110 91 51 10 8 10 3 353 348 332 313 305 166 170 201 226 260 252 180 153
149 130 95 340 203 139 123 124 122 110 45 340 334 135 114 116 102 85 70 60 67 94 103 89 52 21 10 5 1 357 352 49 330 321 105 88 69 54 56 44 50 76
126 133 153 173 210 188 168 168 166 162 149 143 252 294 112 118 124 120 122 116 98 88 95 88 56 15 11 8 8 9 34 50 71 98 78 75 63 56 47 48 51 44
158 174 171 168 188 221 207 172 155 156 164 163 157 168 141 106 105 97 96 113 117 111 108 97 70 26 18 10 12 19 65 69 89 91 78 73 71 56 56 57 61 63
166 175 168 154 214 231 213 172 169 161 159 137 130 128 119 117 112 104 95 81 95 99 93 92 78 40 25 21 32 41 77 77 87 94 84 76 78 70 55 53 41 48
177 176 174 187 208 215 246 55 100 95 71 84 95 116 127 119 105 108 104 88 81 87 82 85 81 60 39 39 52 59 81 95 90 102 112 109 91 78 60 50 41 29